Date,TemperatureHighF,TemperatureAvgF,TemperatureLowF,DewpointHighF,DewpointAvgF,DewpointLowF,HumidityHigh,HumidityAvg,HumidityLow,PressureMaxIn,PressureMinIn,WindSpeedMaxMPH,WindSpeedAvgMPH,GustSpeedMaxMPH,PrecipitationSumIn
2013-1-1,58.5,54.3,50.2,53.3,49.7,44.8,96,85,70,30.13,29.93,8,4,17,0.00
2013-1-2,53.9,49.2,42.0,53.1,47.4,38.7,97,94,87,30.17,29.86,8,3,16,0.00
2013-1-3,42.0,40.7,33.6,41.1,37.5,31.5,100,88,83,30.24,30.10,7,3,14,0.00
2013-1-4,51.7,38.5,28.4,36.1,31.6,27.3,97,79,46,30.30,30.17,9,2,18,0.18
2013-1-5,48.8,36.8,26.0,35.1,30.7,24.3,94,80,49,30.37,30.25,7,2,12,0.24
2013-1-6,48.8,45.1,37.2,45.1,41.9,35.1,93,89,75,30.26,30.04,6,1,11,0.02
2013-1-7,53.9,45.0,35.5,44.8,37.7,33.4,94,77,51,30.41,30.11,9,4,18,0.01
2013-1-8,61.7,49.1,39.6,51.9,43.6,34.2,95,82,67,30.40,30.32,9,2,15,0.00
2013-1-9,70.4,55.6,41.7,60.5,51.8,40.4,97,88,69,30.39,30.32,6,1,9,0.01
2013-1-10,64.8,55.4,48.4,55.1,48.1,38.8,97,78,55,30.48,30.37,10,3,15,0.00
2013-1-11,68.7,58.3,46.9,65.3,55.4,41.8,97,90,78,30.39,30.13,14,3,22,0.00
2013-1-12,74.4,62.9,54.1,67.0,60.0,52.8,98,91,76,30.15,30.07,8,2,14,0.00
2013-1-13,71.7,59.6,50.6,64.8,57.2,49.5,98,92,76,30.16,30.07,8,2,14,0.00
2013-1-14,74.5,63.5,56.0,67.4,61.0,54.9,97,92,75,30.17,30.09,7,3,14,0.00
2013-1-15,65.1,59.9,55.7,62.8,58.4,54.3,97,95,88,30.16,30.05,8,3,14,0.00
2013-1-16,72.0,62.5,52.9,66.2,59.8,51.5,97,91,77,30.05,29.94,8,3,18,0.00
2013-1-17,73.7,57.1,42.3,66.2,54.8,40.7,98,93,75,29.97,29.75,15,4,26,0.01
2013-1-18,48.6,41.4,36.4,40.8,34.8,29.3,94,79,52,30.50,29.91,16,6,30,0.00
2013-1-19,57.7,42.8,29.9,44.6,36.5,28.0,95,80,54,30.48,30.17,8,2,13,0.00
2013-1-20,65.1,49.8,37.6,48.2,41.5,35.8,96,78,34,30.17,29.97,11,3,22,0.00
2013-1-21,61.6,47.6,32.6,49.9,40.9,31.0,100,79,61,30.05,29.86,8,3,16,0.00
2013-1-22,51.0,39.6,29.3,37.1,21.9,13.2,83,51,29,30.24,29.92,14,5,23,0.00
2013-1-23,41.7,32.6,27.3,25.7,15.1,5.5,89,51,29,30.36,30.10,10,3,16,0.11
2013-1-24,46.3,38.4,27.0,39.0,24.6,9.2,91,59,41,30.48,29.96,18,9,30,0.11
2013-1-25,37.0,30.9,25.2,32.5,22.1,9.8,95,71,49,30.49,30.09,11,3,17,0.22
2013-1-26,43.1,34.8,29.6,37.3,31.5,27.3,95,88,75,30.36,30.10,9,4,13,1.23
2013-1-27,43.3,34.7,28.8,31.1,28.8,27.3,94,80,56,30.55,30.36,11,3,16,0.23
2013-1-28,57.9,44.9,33.0,52.5,40.2,28.4,96,84,72,30.49,30.24,5,2,9,0.04
2013-1-29,73.9,59.0,50.8,62.0,55.6,49.7,97,89,64,30.24,30.11,10,4,19,0.01
2013-1-30,70.5,62.6,56.1,64.4,59.9,55.0,97,91,80,30.12,29.60,12,6,33,0.00
2013-1-31,65.3,52.4,40.1,63.1,39.8,26.6,93,65,35,30.05,29.50,20,9,43,0.01
2013-2-1,53.0,42.2,29.4,33.3,22.7,10.0,66,47,26,30.36,30.00,19,8,33,0.04
2013-2-2,45.0,36.3,26.8,40.9,23.3,8.7,93,61,31,30.40,30.02,9,3,14,0.00
2013-2-3,54.3,42.3,31.9,40.6,34.0,29.6,96,75,42,30.02,29.83,13,4,22,0.00
2013-2-4,48.9,38.2,25.1,36.6,29.5,23.1,93,73,42,30.13,29.96,7,1,12,0.00
2013-2-5,62.2,49.5,38.5,47.8,41.3,35.9,93,75,40,30.04,29.87,9,3,20,0.00
2013-2-6,65.2,50.5,39.9,50.1,43.2,37.1,95,79,36,30.22,29.95,9,3,13,0.00
2013-2-7,61.7,51.2,44.3,53.3,48.3,42.1,96,90,71,30.25,29.80,13,5,22,1.11
2013-2-8,56.2,52.0,47.0,55.4,48.4,39.0,97,88,74,29.97,29.48,21,8,31,0.40
2013-2-9,54.0,42.9,29.8,38.5,29.9,25.0,91,63,34,30.34,29.98,13,6,22,0.00
2013-2-10,53.5,42.5,27.0,49.6,37.2,25.2,95,83,49,30.45,30.25,8,3,14,0.00
2013-2-11,65.5,59.2,51.1,62.5,57.3,48.8,96,93,89,30.28,29.93,12,5,26,0.12
2013-2-12,63.9,57.7,51.8,59.9,51.4,39.5,94,81,41,30.06,29.92,10,4,17,0.07
2013-2-13,57.5,51.9,48.5,56.3,50.5,47.4,100,95,87,29.97,29.60,14,4,29,0.36
2013-2-14,53.2,45.7,37.2,48.6,40.6,35.6,95,83,62,30.07,29.78,9,2,17,0.01
2013-2-15,58.5,44.0,33.3,44.2,37.2,32.0,97,80,44,30.07,29.94,10,2,16,0.00
2013-2-16,48.3,39.2,33.1,43.9,36.7,31.7,96,91,80,29.94,29.68,16,5,27,0.17
2013-2-17,39.0,32.8,27.1,33.4,23.6,14.0,95,72,37,30.26,29.84,19,8,33,0.05
2013-2-18,47.8,35.4,20.4,30.6,23.4,14.0,92,65,34,30.42,30.26,9,2,16,0.00
2013-2-19,59.0,47.3,31.0,55.7,44.3,27.9,96,89,76,30.28,29.89,14,4,30,0.11
2013-2-20,57.9,45.4,34.4,45.2,33.1,13.5,96,70,18,30.09,29.93,13,3,22,0.00
2013-2-21,57.6,42.1,31.2,37.7,30.7,23.0,94,67,29,30.23,30.06,9,3,14,0.00
2013-2-22,52.0,44.7,39.6,50.1,37.8,28.4,94,77,62,30.30,30.03,9,4,18,0.00
2013-2-23,53.2,48.2,44.7,51.8,47.2,43.9,97,97,94,30.03,29.80,8,3,14,0.58
2013-2-24,64.1,50.6,39.6,51.4,46.6,38.1,97,88,52,29.97,29.74,12,4,18,0.00
2013-2-25,46.3,41.9,36.2,42.5,35.1,32.5,96,77,63,30.16,29.97,10,5,22,0.00
2013-2-26,64.0,55.0,41.4,63.1,52.9,33.7,97,93,74,30.06,29.59,19,8,31,0.96
2013-2-27,61.3,53.0,47.2,58.3,46.8,41.6,95,80,57,29.79,29.59,14,6,27,0.00
2013-2-28,57.6,47.4,35.6,45.4,39.7,33.0,92,76,47,29.82,29.67,12,5,21,0.00
2013-3-1,55.7,43.0,32.1,35.6,32.8,29.6,91,70,42,29.88,29.77,11,3,17,0.00
2013-3-2,52.6,39.6,28.8,35.3,30.9,27.3,95,74,46,29.88,29.76,9,3,19,0.00
2013-3-3,48.7,38.2,29.9,33.5,27.0,24.2,88,66,42,29.93,29.80,13,5,24,0.00
2013-3-4,50.2,36.5,27.3,26.7,22.4,18.8,86,60,30,30.08,29.93,15,5,24,0.00
2013-3-5,62.3,47.3,28.4,53.9,39.1,24.5,93,75,46,30.09,29.63,9,3,20,0.07
2013-3-6,58.2,49.0,42.5,55.3,37.4,27.6,94,66,44,29.91,29.49,28,14,45,0.03
2013-3-7,55.8,45.1,33.9,35.1,32.7,30.0,86,63,43,30.15,29.91,19,8,29,0.00
2013-3-8,56.3,43.0,30.7,32.3,29.6,27.3,88,62,35,30.20,30.06,18,7,29,0.00
2013-3-9,63.5,46.4,33.3,40.1,34.8,28.7,91,67,40,30.26,30.18,10,3,17,0.00
2013-3-10,63.4,47.6,29.2,48.2,37.3,27.7,96,72,32,30.28,30.22,10,3,14,0.00
2013-3-11,69.3,56.3,41.3,57.2,50.7,39.7,97,83,60,30.23,29.96,15,5,23,0.00
2013-3-12,65.8,61.0,57.8,62.7,59.0,56.1,97,93,83,29.95,29.75,13,4,29,1.00
2013-3-13,62.2,52.7,44.5,57.0,38.3,29.1,96,61,30,30.03,29.85,13,6,24,0.00
2013-3-14,52.9,42.9,33.3,31.6,25.4,20.3,84,52,34,30.20,30.03,16,7,26,0.00
2013-3-15,57.3,45.5,28.3,44.3,32.8,21.2,91,64,27,30.17,29.95,10,4,22,0.00
2013-3-16,74.5,61.6,53.0,55.0,49.2,44.1,81,65,42,29.95,29.72,12,7,25,0.00
2013-3-17,66.4,56.3,48.3,54.0,49.2,43.4,86,77,57,30.10,29.84,17,6,24,0.00
2013-3-18,66.9,54.2,47.9,55.8,49.6,43.1,95,85,66,30.10,29.86,9,4,17,0.00
2013-3-19,70.0,57.7,45.5,57.1,52.0,40.6,96,83,39,29.95,29.71,14,5,22,0.44
2013-3-20,58.0,49.9,38.5,40.7,28.6,18.2,89,47,23,30.08,29.79,10,4,18,0.00
2013-3-21,53.1,42.8,30.7,35.3,26.8,16.6,94,59,26,29.93,29.66,15,6,29,0.00
2013-3-22,51.2,39.0,26.0,34.6,24.0,15.4,74,56,28,30.07,29.93,12,4,21,0.00
2013-3-23,58.2,44.2,32.2,40.1,34.9,29.8,92,72,44,30.02,29.88,6,1,11,0.00
2013-3-24,57.8,47.4,38.0,56.0,45.1,36.0,96,92,71,29.91,29.39,27,7,46,0.40
2013-3-25,52.7,45.8,39.6,43.7,38.6,30.0,96,78,49,29.79,29.48,15,6,27,0.00
2013-3-26,50.5,42.5,34.3,34.5,31.1,27.8,79,65,46,30.06,29.79,11,5,21,0.00
2013-3-27,56.7,44.5,33.2,33.8,29.5,26.6,83,58,34,30.18,30.06,13,6,22,0.00
2013-3-28,57.0,43.8,30.1,34.4,28.7,25.4,84,59,33,30.23,30.11,14,5,24,0.00
2013-3-29,58.4,45.6,29.4,41.6,33.6,26.6,90,65,35,30.30,30.18,12,3,22,0.00
2013-3-30,65.7,50.8,38.4,48.4,43.5,35.7,92,77,45,30.22,30.11,8,2,15,0.00
2013-3-31,66.2,56.4,43.1,57.7,51.9,40.7,95,85,69,30.11,29.83,12,5,30,0.08
2013-4-1,69.1,60.3,48.6,62.3,57.3,47.0,95,90,74,29.88,29.79,9,3,15,0.04
2013-4-2,61.5,53.1,42.5,49.6,40.3,31.9,95,64,36,30.11,29.89,13,5,22,0.00
2013-4-3,57.1,49.3,41.3,47.4,39.4,32.8,95,71,42,30.26,30.08,9,4,17,0.00
2013-4-4,60.0,50.0,42.3,58.8,45.2,35.9,96,84,64,30.27,29.74,13,5,24,0.78
2013-4-5,61.1,50.1,41.5,60.2,47.3,39.9,97,90,73,29.99,29.73,12,5,23,0.01
2013-4-6,64.5,51.0,37.2,46.8,40.8,35.2,97,71,35,30.26,29.99,16,6,24,0.00
2013-4-7,69.8,55.7,40.7,57.6,49.4,38.3,96,81,62,30.26,30.14,11,4,15,0.00
2013-4-8,75.1,65.0,53.0,63.2,58.6,51.3,96,81,64,30.18,30.10,10,4,21,0.00
2013-4-9,78.2,67.2,55.4,67.2,61.9,54.0,96,84,67,30.20,30.10,10,4,20,0.00
2013-4-10,78.5,68.7,59.5,66.2,62.5,58.4,97,82,58,30.13,30.00,11,5,28,0.00
2013-4-11,79.1,69.4,59.2,70.4,65.1,57.5,96,87,72,30.02,29.86,10,5,24,0.00
2013-4-12,76.0,67.9,64.6,71.8,65.9,62.8,97,93,85,29.87,29.68,11,6,30,0.78
2013-4-13,68.1,61.8,48.5,64.3,55.4,46.6,96,80,59,30.01,29.73,13,6,23,0.01
2013-4-14,74.8,60.0,42.9,60.1,51.5,41.6,97,77,46,30.09,30.00,10,2,16,0.00
2013-4-15,71.5,64.8,58.3,62.7,60.4,56.0,94,86,72,30.17,29.94,18,6,29,0.41
2013-4-16,77.0,67.3,58.8,66.7,61.5,56.9,97,83,62,30.25,30.15,11,4,18,0.00
2013-4-17,77.4,65.6,52.7,66.1,60.1,51.6,97,84,63,30.22,30.12,10,3,16,0.00
2013-4-18,76.9,68.0,55.5,66.3,62.0,54.2,97,82,64,30.18,30.07,14,6,21,0.02
2013-4-19,78.3,70.9,66.6,72.9,68.1,64.9,96,91,81,30.06,29.87,13,6,28,0.60
2013-4-20,67.6,57.5,48.4,66.1,51.6,45.0,97,81,64,30.23,29.84,13,5,21,0.77
2013-4-21,64.4,54.4,42.0,48.4,43.8,38.1,96,70,47,30.42,30.23,13,6,27,0.00
2013-4-22,59.9,52.1,45.6,53.7,47.7,39.2,94,85,71,30.38,30.13,16,10,30,0.01
2013-4-23,67.0,56.2,51.0,55.5,51.9,49.3,95,86,64,30.16,30.07,12,7,26,0.00
2013-4-24,73.1,60.8,44.5,63.2,55.9,43.2,97,85,68,30.17,30.03,11,4,24,0.00
2013-4-25,69.4,63.0,52.3,63.9,58.5,48.9,95,86,69,30.25,30.04,16,5,24,0.01
2013-4-26,71.3,59.1,44.3,52.8,48.4,42.3,96,70,37,30.37,30.24,13,5,20,0.00
2013-4-27,72.4,63.1,51.7,54.0,48.4,40.6,94,63,33,30.35,30.26,14,6,23,0.00
2013-4-28,72.9,64.8,57.7,60.2,52.9,47.1,87,67,44,30.26,30.09,11,5,16,0.00
2013-4-29,70.9,65.0,62.5,66.1,61.7,58.4,96,89,78,30.09,29.96,9,4,18,0.95
2013-4-30,75.2,66.0,59.3,66.2,62.1,58.2,97,88,70,30.09,29.96,9,3,14,0.01
2013-5-1,72.7,64.9,60.3,65.3,61.1,57.5,95,88,71,30.22,30.06,10,4,18,0.05
2013-5-2,70.5,64.0,59.1,62.9,59.8,55.8,95,87,67,30.24,30.16,12,6,20,0.03
2013-5-3,69.7,61.2,55.1,59.7,53.8,46.1,94,78,56,30.17,30.11,13,6,24,0.00
2013-5-4,67.4,59.5,53.7,58.3,54.3,49.4,94,83,68,30.11,30.00,11,7,22,0.00
2013-5-5,72.5,63.0,54.6,63.7,58.4,52.5,94,85,72,30.01,29.92,15,8,24,0.00
2013-5-6,73.9,67.7,63.1,67.6,63.0,60.3,93,85,72,29.94,29.84,14,7,22,0.05
2013-5-7,66.6,57.1,50.5,60.3,54.0,49.1,96,90,68,29.91,29.84,4,1,7,0.02
2013-5-8,74.3,64.3,50.2,64.3,58.0,48.8,97,81,56,30.01,29.92,11,4,26,0.00
2013-5-9,79.8,69.7,56.4,66.9,62.2,54.7,96,78,60,30.06,29.95,8,3,16,0.00
2013-5-10,81.0,69.6,55.7,70.3,63.2,54.1,97,82,62,30.07,29.99,9,3,19,0.00
2013-5-11,80.0,72.4,68.4,74.0,68.2,64.9,94,87,72,30.01,29.82,12,5,26,0.00
2013-5-12,80.9,72.5,65.0,68.1,61.4,48.4,93,71,38,29.95,29.76,10,4,21,0.00
2013-5-13,71.2,62.5,47.2,50.4,43.9,37.4,83,52,32,30.11,29.95,12,6,22,0.00
2013-5-14,71.3,59.9,44.5,51.4,43.4,36.1,88,57,29,30.22,30.11,9,4,21,0.00
2013-5-15,76.9,68.5,54.8,65.9,60.6,51.6,94,77,62,30.12,29.94,13,5,27,0.00
2013-5-16,87.3,73.6,64.5,70.0,64.9,60.4,90,75,50,29.98,29.90,8,4,17,0.00
2013-5-17,88.7,75.8,66.3,69.6,66.8,63.9,92,75,50,30.08,29.97,7,3,19,0.00
2013-5-18,82.3,73.5,65.2,73.2,68.0,62.7,96,84,67,30.16,30.08,9,3,19,0.00
2013-5-19,83.0,74.0,64.4,72.3,68.8,62.9,96,84,68,30.15,30.08,10,4,19,0.00
2013-5-20,80.9,74.3,69.4,71.8,69.8,67.6,95,86,72,30.13,30.05,9,4,23,0.02
2013-5-21,80.1,74.6,70.6,72.9,70.4,68.8,95,87,75,30.07,29.98,8,4,21,0.00
2013-5-22,83.0,75.8,68.3,74.0,71.1,66.8,96,86,72,30.04,29.96,10,4,24,0.17
2013-5-23,80.8,74.6,69.8,73.6,71.1,68.2,96,89,76,29.98,29.83,11,4,20,0.18
2013-5-24,79.1,71.3,58.8,70.7,60.4,42.2,96,71,45,30.13,29.76,15,6,26,0.00
2013-5-25,74.7,60.2,44.9,51.6,44.7,40.6,89,60,31,30.25,30.10,10,3,18,0.00
2013-5-26,75.4,60.4,48.5,56.4,52.1,46.6,95,76,43,30.22,30.13,6,1,10,0.00
2013-5-27,78.1,64.3,45.4,63.9,53.4,43.8,97,72,34,30.26,30.19,12,3,16,0.00
2013-5-28,81.8,70.6,54.3,69.9,63.2,52.6,96,79,55,30.26,30.18,12,4,18,0.00
2013-5-29,83.7,74.5,61.9,72.3,67.2,60.5,97,79,60,30.26,30.17,10,3,19,0.00
2013-5-30,84.7,74.4,59.1,73.8,68.4,57.7,96,83,67,30.26,30.19,12,4,18,0.00
2013-5-31,84.3,76.0,63.9,75.0,70.6,62.4,97,84,69,30.22,30.13,11,3,20,0.00
2013-6-1,85.4,76.4,65.2,74.3,70.5,63.7,97,83,66,30.16,30.07,10,3,23,0.00
2013-6-2,84.5,77.7,70.6,73.9,72.0,69.1,96,83,70,30.09,29.96,11,4,24,0.00
2013-6-3,82.7,73.7,68.3,77.0,71.6,66.7,97,93,82,29.98,29.84,13,2,29,1.82
2013-6-4,84.1,73.3,68.1,74.5,69.9,67.2,97,90,72,30.08,29.89,13,4,22,0.04
2013-6-5,81.4,74.6,68.4,68.8,66.1,61.4,90,76,53,30.10,30.01,12,6,20,0.00
2013-6-6,80.4,75.6,73.0,75.0,72.0,68.2,96,89,80,30.03,29.85,12,6,20,0.57
2013-6-7,81.2,77.0,72.9,77.2,73.5,70.5,97,89,78,29.85,29.56,18,8,38,0.41
2013-6-8,85.2,78.9,72.1,78.2,75.6,70.3,97,90,78,30.09,29.84,15,6,27,0.01
2013-6-9,85.0,78.8,73.8,78.9,75.5,72.0,96,90,81,30.15,30.08,10,3,21,0.01
2013-6-10,84.6,78.6,72.4,77.8,74.7,69.9,95,88,78,30.14,29.97,11,5,29,0.00
2013-6-11,85.8,78.6,73.8,76.5,73.6,70.8,94,85,70,30.00,29.88,9,5,19,0.01
2013-6-12,90.8,79.8,68.2,78.3,72.9,67.0,97,81,52,29.97,29.87,8,2,19,0.00
2013-6-13,91.3,82.4,69.8,82.1,77.1,66.2,96,85,60,29.87,29.62,16,4,32,0.00
2013-6-14,80.4,73.4,65.0,69.0,63.6,58.6,96,73,52,30.00,29.67,11,5,20,0.00
2013-6-15,85.3,72.2,55.9,65.7,59.4,52.9,96,68,36,30.10,30.00,10,3,18,0.00
2013-6-16,84.0,75.8,65.8,69.9,66.6,62.6,93,74,55,30.15,30.04,10,4,27,0.00
2013-6-17,85.8,77.9,69.9,74.7,71.1,66.2,92,80,66,30.07,29.96,9,4,22,0.00
2013-6-18,86.0,78.8,73.2,79.4,74.9,70.9,95,88,75,29.99,29.79,10,4,21,0.00
2013-6-19,78.3,73.7,70.2,73.2,70.6,65.8,96,90,78,30.08,29.82,10,4,19,0.00
2013-6-20,84.9,74.5,66.3,69.5,65.0,59.3,94,74,44,30.18,30.06,12,5,19,0.00
2013-6-21,83.9,75.1,66.3,74.5,69.8,62.7,96,84,71,30.18,30.12,14,5,23,0.00
2013-6-22,79.8,75.2,71.7,75.9,72.8,70.2,96,92,86,30.16,30.10,16,8,29,0.00
2013-6-23,85.7,78.6,71.1,77.9,74.5,69.9,97,88,75,30.20,30.14,11,4,19,0.00
2013-6-24,84.1,77.5,73.7,77.9,74.7,70.5,96,91,80,30.23,30.11,10,2,24,0.00
2013-6-25,88.0,78.6,70.7,80.0,74.7,69.0,96,88,70,30.14,30.03,11,3,24,0.00
2013-6-26,88.0,79.7,72.6,78.5,75.2,71.4,97,87,70,30.04,29.93,10,4,27,0.00
2013-6-27,84.6,78.9,70.8,79.5,74.9,67.8,94,88,80,29.93,29.75,12,6,32,0.00
2013-6-28,88.0,80.9,75.9,80.7,77.3,71.4,96,89,77,29.80,29.63,10,5,24,0.00
2013-6-29,83.3,79.1,75.6,77.2,75.6,73.8,95,89,78,29.79,29.63,12,6,28,0.00
2013-6-30,83.0,76.7,71.5,77.5,74.4,70.0,97,93,79,29.90,29.75,12,5,29,0.00
2013-7-1,79.5,76.7,73.2,76.6,74.6,71.7,96,93,87,30.06,29.86,13,5,31,0.00
2013-7-2,86.8,80.0,73.3,80.2,76.3,71.5,96,89,79,30.20,30.05,12,6,24,0.00
2013-7-3,87.6,81.8,75.8,79.9,77.1,73.5,95,86,76,30.26,30.17,11,6,23,0.00
2013-7-4,86.5,81.7,76.8,78.4,76.3,74.3,93,84,73,30.28,30.22,11,6,18,0.00
2013-7-5,87.6,82.0,77.8,79.4,76.6,74.2,94,84,74,30.28,30.20,12,5,22,0.00
2013-7-6,87.6,81.2,72.0,77.7,74.7,70.6,97,81,68,30.25,30.16,10,4,19,0.00
2013-7-7,86.6,79.0,68.2,76.8,72.7,66.7,97,82,67,30.20,30.09,9,3,21,0.00
2013-7-8,87.2,80.1,71.9,76.7,74.0,70.4,96,82,68,30.19,30.10,9,3,23,0.00
2013-7-9,87.0,79.9,73.5,78.2,75.0,71.7,96,86,68,30.18,30.09,11,3,19,0.00
2013-7-10,88.6,81.3,74.9,78.2,75.4,72.8,95,83,66,30.13,29.99,9,4,21,0.00
2013-7-11,88.5,80.9,75.0,79.0,75.6,72.9,94,84,69,30.01,29.89,9,4,26,0.00
2013-7-12,79.2,75.5,72.8,76.0,73.6,71.0,96,94,89,29.98,29.87,8,2,19,0.00
2013-7-13,84.8,78.2,73.1,78.9,74.8,71.9,97,90,80,30.17,29.97,16,7,34,0.00
2013-7-14,87.0,81.8,78.1,78.0,76.3,74.1,92,84,70,30.26,30.16,13,6,20,0.00
2013-7-15,89.3,81.5,73.9,78.4,75.5,72.0,96,83,63,30.28,30.22,10,3,16,0.00
2013-7-16,92.7,81.2,71.3,78.5,74.3,70.0,97,81,61,30.25,30.16,6,1,11,0.00
2013-7-17,90.6,81.3,75.2,79.4,75.5,72.6,94,83,64,30.18,30.09,7,2,14,0.00
2013-7-18,92.3,81.7,70.5,78.7,74.3,69.2,97,80,53,30.13,30.06,8,1,15,0.00
2013-7-19,88.9,81.9,74.9,79.9,76.3,73.1,95,84,71,30.12,30.01,10,3,25,0.00
2013-7-20,87.7,82.1,76.6,78.3,75.6,73.4,91,81,67,30.06,29.97,11,5,27,0.00
2013-7-21,86.0,79.9,75.4,77.8,74.9,70.8,93,85,73,30.02,29.92,9,3,23,0.00
2013-7-22,88.0,80.5,74.0,79.4,76.1,72.5,96,87,74,29.96,29.84,9,3,21,0.00
2013-7-23,86.5,80.3,75.4,78.3,75.7,72.6,94,86,75,29.89,29.74,8,3,21,0.00
2013-7-24,92.0,81.1,74.5,80.3,76.2,72.7,95,86,67,29.81,29.73,6,2,19,0.00
2013-7-25,86.8,79.2,73.3,77.7,73.7,69.9,96,84,67,29.98,29.75,8,3,16,0.00
2013-7-26,85.4,77.7,69.8,75.2,71.5,67.8,95,82,69,30.07,29.98,9,3,15,0.00
2013-7-27,87.7,78.4,65.6,75.8,72.0,64.3,97,82,63,30.04,29.94,11,4,16,0.00
2013-7-28,88.2,80.2,74.6,79.1,75.7,72.2,96,87,68,30.01,29.88,7,2,19,0.00
2013-7-29,88.5,77.6,72.5,81.6,74.9,70.6,96,92,75,30.13,30.00,8,1,17,0.03
2013-7-30,87.6,77.0,69.3,77.8,73.1,68.4,97,88,70,30.18,30.11,10,2,16,0.01
2013-7-31,85.5,79.5,73.3,77.0,73.8,68.8,97,83,59,30.12,30.01,11,4,16,0.00
2013-8-1,84.7,77.2,71.7,77.5,74.3,69.8,97,91,78,30.01,29.89,8,2,22,0.00
2013-8-2,88.8,80.6,74.4,79.9,76.4,73.0,96,87,72,30.03,29.90,9,3,22,0.00
2013-8-3,88.4,82.2,76.8,80.0,77.2,75.1,96,85,70,30.04,29.91,10,2,21,0.00
2013-8-4,90.5,79.1,66.8,79.0,73.4,64.4,96,83,63,30.00,29.86,11,2,20,0.00
2013-8-5,85.9,74.6,61.8,68.8,64.0,60.4,96,73,47,30.06,29.98,10,3,15,0.00
2013-8-6,85.1,75.4,63.4,71.9,67.3,61.3,95,77,56,30.06,29.98,9,2,13,0.00
2013-8-7,87.0,77.2,65.6,75.5,71.2,64.3,97,83,63,30.08,30.02,9,3,16,0.00
2013-8-8,91.4,82.5,75.5,79.3,76.9,73.9,96,84,63,30.05,30.00,9,2,15,0.00
2013-8-9,90.1,83.1,76.9,80.3,77.8,75.2,95,85,71,30.08,30.01,9,4,22,0.00
2013-8-10,92.5,83.6,76.5,80.8,77.7,75.1,96,83,67,30.12,30.01,8,3,20,0.00
2013-8-11,94.7,81.5,75.6,81.5,76.8,73.1,95,86,63,30.10,30.01,15,1,25,0.10
2013-8-12,92.6,81.4,73.6,81.8,76.7,71.6,95,86,69,30.05,29.94,9,2,19,0.01
2013-8-13,90.4,82.0,73.5,81.8,78.1,71.7,96,88,73,29.94,29.78,9,2,24,0.00
2013-8-14,79.8,74.3,68.5,75.1,70.9,63.0,97,89,78,30.03,29.78,9,4,22,0.00
2013-8-15,70.3,67.2,64.7,66.3,64.2,62.7,96,91,78,30.09,30.02,7,3,14,0.00
2013-8-16,74.9,70.7,66.1,71.1,68.3,64.6,95,92,88,30.11,30.02,6,3,13,0.00
2013-8-17,77.2,73.1,68.3,75.7,71.5,66.6,97,95,91,30.11,30.02,7,2,14,0.00
2013-8-18,87.7,78.5,71.6,79.0,74.6,70.7,97,88,72,30.18,30.10,6,1,12,0.00
2013-8-19,84.5,76.9,73.4,76.7,74.3,72.2,97,92,76,30.15,30.06,7,2,12,0.00
2013-8-20,84.6,77.6,72.9,77.4,74.6,72.0,97,91,78,30.16,30.07,9,2,16,0.00
2013-8-21,87.3,79.5,71.5,80.7,75.9,70.6,97,89,76,30.21,30.10,10,2,16,0.00
2013-8-22,85.5,76.7,70.4,79.2,73.6,69.1,97,90,77,30.13,30.00,4,1,14,0.00
2013-8-23,89.7,79.4,70.6,79.9,74.6,69.4,97,86,66,30.01,29.90,10,2,16,0.00
2013-8-24,81.8,74.2,68.4,70.7,68.3,65.8,97,83,63,30.22,29.99,12,5,22,0.00
2013-8-25,80.8,73.3,67.7,68.4,65.7,63.1,88,78,64,30.31,30.21,10,4,23,0.00
2013-8-26,84.4,72.7,64.0,69.7,65.3,61.7,94,79,49,30.26,30.11,7,2,13,0.00
2013-8-27,84.7,73.5,62.3,70.6,66.0,61.0,97,79,57,30.11,29.97,8,2,19,0.00
2013-8-28,85.9,79.1,70.3,77.9,73.5,66.8,93,83,74,30.00,29.89,5,1,13,0.00
2013-8-29,87.9,80.1,74.1,80.5,74.4,71.3,91,83,70,29.96,29.83,10,3,19,0.00
2013-8-30,85.5,76.2,70.1,75.1,71.6,68.3,95,86,70,30.02,29.94,9,3,16,0.00
2013-8-31,87.9,77.8,67.5,79.2,73.1,66.2,97,86,68,29.97,29.88,10,2,18,0.00
2013-9-1,89.4,81.1,74.1,80.7,77.0,72.5,97,88,66,29.94,29.83,9,3,21,0.00
2013-9-2,86.8,80.4,75.8,81.2,77.3,73.4,96,90,78,29.90,29.80,8,3,21,0.00
2013-9-3,85.9,78.1,69.0,78.6,74.8,66.4,96,90,77,29.94,29.81,18,2,30,0.00
2013-9-4,86.1,76.7,67.6,77.1,72.4,66.7,97,87,71,30.06,29.91,9,2,14,0.00
2013-9-5,88.4,78.4,70.1,79.9,74.5,68.9,97,88,71,30.07,30.00,8,1,15,0.00
2013-9-6,86.5,74.9,66.7,76.2,70.9,65.5,96,88,64,30.08,30.01,9,2,19,0.00
2013-9-7,83.5,73.1,64.6,68.8,64.7,59.5,93,77,47,30.08,29.97,7,2,14,0.00
2013-9-8,85.4,74.0,60.6,74.7,68.4,59.3,96,84,67,29.98,29.88,7,1,14,0.00
2013-9-9,87.3,76.8,67.7,75.7,71.1,66.5,96,84,60,30.14,29.96,10,2,15,0.00
2013-9-10,88.9,77.1,67.6,77.0,71.2,66.4,97,83,60,30.21,30.13,10,2,18,0.00
2013-9-11,86.6,75.3,66.7,74.6,69.7,65.4,97,84,56,30.19,30.08,9,1,15,0.00
2013-9-12,88.6,77.1,67.0,76.9,71.7,65.8,97,84,66,30.08,29.81,7,2,18,0.00
2013-9-13,86.9,78.4,70.9,76.3,72.4,67.5,92,82,62,29.82,29.72,7,2,14,0.00
2013-9-14,79.1,72.8,67.1,69.7,65.6,60.7,89,78,66,30.09,29.79,10,4,20,0.00
2013-9-15,82.8,73.8,65.9,70.8,67.1,63.5,93,80,62,30.19,30.09,8,3,13,0.00
2013-9-16,86.4,74.8,66.8,78.1,71.6,65.3,96,90,74,30.12,30.01,11,1,20,0.11
2013-9-17,78.3,70.0,62.6,67.1,62.9,56.6,89,79,63,30.23,30.10,10,6,21,0.01
2013-9-18,79.0,67.8,58.8,65.0,59.8,55.0,88,76,60,30.23,30.12,9,4,18,0.00
2013-9-19,79.9,66.8,56.0,61.7,58.3,54.3,95,76,48,30.16,30.07,7,1,13,0.00
2013-9-20,76.3,66.9,58.1,68.8,62.6,56.4,96,87,64,30.08,29.95,6,1,11,0.00
2013-9-21,78.1,72.3,66.3,73.0,69.5,64.7,97,91,82,29.95,29.73,7,1,11,0.00
2013-9-22,80.0,72.7,68.0,75.1,70.1,64.7,96,92,81,29.83,29.65,13,5,22,0.00
2013-9-23,74.7,66.1,55.9,64.8,58.5,54.1,94,78,56,30.05,29.83,9,3,17,0.00
2013-9-24,76.7,62.4,49.9,61.0,55.6,48.8,97,81,51,30.08,29.94,7,1,13,0.00
2013-9-25,74.2,64.1,52.4,64.2,58.6,51.1,97,83,69,29.95,29.83,6,1,13,0.00
2013-9-26,78.0,68.8,61.8,66.2,62.7,59.6,94,82,63,29.96,29.82,8,2,14,0.00
2013-9-27,76.2,68.1,62.7,63.8,60.2,56.0,92,77,55,30.10,29.94,10,6,22,0.00
2013-9-28,77.7,69.0,62.5,63.8,61.1,59.0,89,77,54,30.14,30.06,11,6,20,0.00
2013-9-29,77.9,67.0,59.1,66.1,61.9,57.4,95,85,62,30.10,29.97,10,4,15,0.00
2013-9-30,77.7,65.6,53.6,61.6,56.0,49.6,95,75,40,30.04,29.96,9,2,15,0.00
2013-10-1,79.4,63.7,49.3,62.1,56.2,47.9,96,79,51,30.10,30.02,7,1,13,0.00
2013-10-2,84.9,71.4,55.4,68.4,62.8,54.0,96,77,53,30.11,30.03,8,2,13,0.00
2013-10-3,84.1,70.6,59.3,70.8,65.0,57.9,97,84,60,30.13,30.08,8,1,13,0.00
2013-10-4,84.2,71.6,60.7,73.3,66.4,59.6,96,85,62,30.13,30.06,9,1,13,0.00
2013-10-5,85.4,72.3,60.9,74.1,66.6,59.8,97,84,57,30.11,30.04,8,1,13,0.00
2013-10-6,81.1,71.6,63.3,75.7,69.2,61.8,97,93,77,30.06,29.95,12,2,19,0.02
2013-10-7,84.7,77.6,72.9,75.7,73.6,71.0,96,88,73,29.95,29.84,10,3,23,0.00
2013-10-8,72.7,64.4,59.7,71.4,63.1,58.6,97,96,94,30.06,29.88,12,8,28,0.01
2013-10-9,63.2,61.3,59.0,62.0,60.2,57.9,97,96,94,30.03,29.90,16,12,30,0.02
2013-10-10,62.1,59.5,57.7,60.4,58.3,56.9,97,96,93,29.91,29.85,13,8,23,0.00
2013-10-11,66.3,63.1,60.0,63.3,61.3,59.1,97,94,88,29.94,29.85,7,2,14,0.01
2013-10-12,68.3,64.9,62.9,65.4,63.4,62.0,97,95,89,30.01,29.91,7,2,11,0.00
2013-10-13,76.8,69.6,66.0,70.2,67.3,65.1,97,93,80,30.09,30.00,11,4,19,0.00
2013-10-14,72.8,69.4,65.3,68.2,66.3,61.9,95,90,82,30.11,30.05,10,6,21,0.00
2013-10-15,70.7,65.3,61.2,65.8,62.9,59.8,95,92,84,30.09,29.98,10,7,17,0.00
2013-10-16,72.8,68.4,64.5,68.2,65.7,62.5,95,91,83,30.00,29.92,8,3,13,0.00
2013-10-17,78.4,68.2,57.8,69.2,64.5,56.8,97,89,72,29.96,29.86,7,1,14,0.00
2013-10-18,76.9,70.8,67.1,69.5,67.6,65.7,96,90,75,29.99,29.87,8,2,12,0.00
2013-10-19,75.1,71.3,68.0,73.3,70.0,67.0,97,96,92,29.93,29.83,4,0,8,0.00
2013-10-20,69.7,63.2,56.0,67.0,57.7,52.7,96,83,65,30.08,29.86,10,4,19,0.00
2013-10-21,69.5,61.4,54.1,60.3,55.6,51.8,95,82,61,30.11,29.98,5,1,11,0.00
2013-10-22,67.7,61.7,56.0,62.8,57.8,53.1,96,87,77,29.99,29.82,3,0,7,0.00
2013-10-23,72.1,61.3,51.6,62.3,54.9,41.6,97,81,53,29.94,29.65,9,3,23,0.00
2013-10-24,61.6,49.6,40.0,45.9,40.0,36.8,94,72,43,30.15,29.94,10,3,17,0.00
2013-10-25,57.7,48.1,35.3,43.6,37.6,32.9,95,69,42,30.33,30.13,11,4,22,0.00
2013-10-26,64.8,45.8,32.1,46.9,38.2,30.5,100,78,49,30.32,30.09,7,1,12,0.00
2013-10-27,66.7,51.5,39.4,51.0,44.0,37.8,95,79,45,30.13,30.04,7,1,13,0.00
2013-10-28,70.9,56.0,42.8,60.9,50.7,41.5,96,84,53,30.23,30.12,6,1,9,0.00
2013-10-29,73.1,58.7,47.9,61.5,54.1,46.6,97,86,60,30.29,30.21,7,1,15,0.00
2013-10-30,73.9,60.2,48.7,62.8,55.8,47.6,97,87,61,30.29,30.17,9,1,14,0.00
2013-10-31,76.3,64.7,51.8,71.2,62.1,50.4,97,92,82,30.20,29.99,11,3,21,0.00
2013-11-1,75.1,72.1,68.5,71.4,69.3,66.4,95,91,86,29.98,29.73,7,4,19,0.00
2013-11-2,72.7,65.2,58.4,70.2,62.4,54.3,97,91,71,29.88,29.67,9,2,21,0.00
2013-11-3,63.3,54.6,46.5,53.8,45.6,42.1,92,73,46,30.30,29.87,10,4,19,0.00
2013-11-4,58.9,51.5,43.6,46.3,42.0,36.4,88,71,50,30.46,30.31,9,5,23,0.00
2013-11-5,72.6,59.8,47.4,60.4,53.2,44.0,90,80,59,30.42,30.35,15,6,24,0.00
2013-11-6,70.7,63.3,56.4,65.6,60.1,51.8,96,89,78,30.35,30.08,7,3,16,0.00
2013-11-7,71.7,65.4,54.7,67.0,63.1,45.2,97,92,73,30.08,29.88,11,2,21,0.00
2013-11-8,57.2,48.1,35.0,45.0,36.4,32.3,93,66,39,30.29,30.00,12,6,22,0.00
2013-11-9,61.1,47.9,32.0,50.7,42.3,30.6,96,83,55,30.35,30.18,7,1,13,0.00
2013-11-10,68.1,54.9,45.5,51.2,46.8,42.6,96,77,43,30.20,30.06,8,1,15,0.00
2013-11-11,59.5,50.0,38.2,46.3,40.4,36.0,94,71,52,30.29,30.14,10,3,21,0.00
2013-11-12,66.8,48.5,35.6,46.9,38.1,26.9,96,71,41,30.32,29.98,18,6,32,0.00
2013-11-13,45.1,36.1,26.8,31.5,24.4,20.9,95,65,39,30.48,30.31,15,7,27,0.00
2013-11-14,56.8,38.4,23.7,34.4,26.5,21.2,91,68,27,30.48,30.33,5,1,10,0.29
2013-11-15,66.3,52.1,33.3,59.6,47.2,30.7,95,84,60,30.34,30.19,10,2,15,0.00
2013-11-16,72.5,62.9,57.4,66.1,60.5,56.0,97,92,76,30.21,30.15,5,1,10,0.01
2013-11-17,74.8,64.3,55.9,66.8,62.0,55.1,97,92,73,30.17,29.95,8,2,19,0.00
2013-11-18,80.1,69.5,60.7,71.6,65.8,45.2,97,89,59,29.95,29.75,10,3,17,0.01
2013-11-19,61.2,52.3,44.3,43.9,36.1,32.6,81,55,40,30.24,29.88,12,6,22,0.00
2013-11-20,58.9,49.8,42.6,48.2,42.7,36.2,88,77,66,30.35,30.22,10,6,20,0.00
2013-11-21,68.8,57.8,48.7,60.1,53.8,45.3,96,87,72,30.39,30.33,10,4,15,0.00
2013-11-22,72.5,62.7,56.0,65.2,59.5,54.6,96,90,75,30.34,30.09,7,2,12,0.00
2013-11-23,65.0,60.2,50.3,63.0,57.5,40.7,96,91,72,30.08,29.98,10,3,16,0.00
2013-11-24,50.0,38.5,31.5,38.5,18.7,10.5,65,45,30,30.51,30.07,17,9,29,0.00
2013-11-25,43.4,34.7,24.8,32.4,22.0,11.4,81,60,43,30.56,30.32,8,3,14,0.15
2013-11-26,68.1,56.6,37.6,66.9,54.6,32.7,97,93,79,30.32,29.63,16,6,28,0.04
2013-11-27,68.7,54.6,35.9,67.5,52.6,27.7,97,93,72,30.12,29.42,13,7,31,0.03
2013-11-28,43.2,34.0,27.9,31.2,26.2,21.9,94,75,47,30.47,30.12,12,3,21,0.20
2013-11-29,51.7,39.5,28.1,35.5,30.9,26.8,96,74,45,30.56,30.45,10,3,17,0.15
2013-11-30,56.3,45.4,35.4,47.1,39.3,29.9,90,79,68,30.54,30.30,8,5,18,0.01
2013-12-1,58.1,49.6,44.9,51.8,46.9,42.3,97,91,76,30.29,29.99,6,2,14,0.01
2013-12-2,56.3,48.6,38.8,49.6,46.3,37.5,97,92,75,29.98,29.77,6,2,10,0.00
2013-12-3,60.0,47.2,34.0,50.0,42.6,33.0,97,86,54,30.00,29.84,5,1,8,0.01
2013-12-4,66.1,58.8,51.6,65.2,57.7,49.9,97,96,94,30.10,29.98,4,0,6,0.00
2013-12-5,72.2,62.7,53.4,68.2,61.2,52.6,98,95,86,30.15,30.07,6,1,13,0.00
2013-12-6,75.0,67.4,63.0,70.2,65.5,61.6,97,94,84,30.14,30.05,8,4,20,0.02
2013-12-7,66.9,54.3,42.5,66.0,53.1,40.9,97,96,92,30.39,30.06,13,5,23,0.00
2013-12-8,44.0,42.5,41.0,42.4,41.1,39.9,97,95,90,30.37,30.24,10,6,19,0.01
2013-12-9,66.6,53.3,42.0,65.5,52.3,41.2,98,96,92,30.24,30.05,6,1,13,0.01
2013-12-10,71.9,56.5,39.4,67.2,54.3,36.7,98,93,83,30.30,29.83,17,5,30,0.03
2013-12-11,49.9,38.9,31.1,36.2,30.4,25.6,94,73,42,30.45,30.27,8,2,16,0.01
2013-12-12,47.3,37.5,27.1,33.6,28.6,25.0,99,73,45,30.36,30.24,13,4,23,0.00
2013-12-13,49.5,35.6,25.0,33.3,27.4,21.3,94,76,34,30.41,30.28,8,1,13,0.06
2013-12-14,65.4,53.2,33.6,63.9,49.7,31.8,96,88,68,30.30,29.74,15,5,28,0.00
2013-12-15,63.4,53.8,37.4,62.5,50.6,-99.9,97,91,76,30.05,29.67,11,3,22,0.00
2013-12-16,56.9,42.5,32.5,44.1,36.5,30.5,95,81,48,30.17,30.05,8,2,12,0.00
2013-12-17,58.5,50.0,38.2,50.1,43.5,36.4,96,80,58,30.16,29.95,10,3,22,0.00
2013-12-18,54.6,43.4,29.1,40.1,31.9,24.7,92,67,36,30.30,29.97,12,4,21,0.00
2013-12-19,58.2,41.5,27.9,42.2,32.4,22.8,95,76,26,30.34,30.25,6,1,14,0.43
2013-12-20,69.4,53.9,37.5,62.7,51.4,35.9,97,92,79,30.25,30.14,6,1,12,0.10
2013-12-21,71.2,63.3,52.7,67.0,61.5,51.6,98,94,86,30.17,30.10,7,2,17,0.02
2013-12-22,74.0,68.2,63.8,69.9,66.3,62.6,97,94,86,30.13,30.08,9,4,21,0.01
2013-12-23,71.7,66.9,58.7,68.3,65.1,57.6,97,94,86,30.12,30.01,10,5,22,0.00
2013-12-24,58.5,46.2,36.6,57.4,41.6,27.9,96,85,63,30.39,30.01,13,7,21,0.00
2013-12-25,43.6,37.5,30.6,34.8,27.9,22.0,80,68,59,30.50,30.34,9,5,19,0.01
2013-12-26,43.7,42.0,39.2,42.4,38.7,34.7,95,88,80,30.33,30.21,10,4,14,0.03
2013-12-27,53.1,42.6,31.1,37.5,34.5,29.1,93,75,48,30.40,30.30,8,3,16,0.04
2013-12-28,60.5,44.2,28.0,46.2,36.6,26.6,96,77,46,30.39,30.12,5,1,12,0.80
2013-12-29,66.0,61.7,51.5,64.4,59.1,47.1,96,91,81,30.12,29.71,12,7,28,0.21
2013-12-30,59.7,49.8,41.6,50.6,46.3,40.5,97,88,66,30.11,29.91,6,1,11,0.11
2013-12-31,54.2,45.1,34.8,44.9,39.7,33.2,96,83,47,30.35,30.06,11,2,19,0.09
2014-1-1,53.2,42.9,31.1,45.2,37.4,29.8,96,82,48,30.40,30.12,5,0,8,0.05
2014-1-2,59.1,49.9,45.8,58.2,48.9,44.1,97,96,93,30.12,29.52,15,2,27,0.07